GW3011 Weather Reports


time (UTC)temp
F
wind
direction
speed
knots
gust
knots
rain 1hr
in
rain 24hr
in
rain mn
in
humidity
%
barometer
mb
20260905175326 80 218 0.0 0.0 0.00 0.00 0.00 52 1009.6
20260905174821 80 178 0.0 0.0 0.00 0.00 0.00 53 1010.1
20260905174317 79 187 0.0 0.0 0.00 0.00 0.00 53 1009.7
20260905173813 78 181 0.0 0.0 0.00 0.00 0.00 56 1009.8
20260905173308 80 222 0.0 0.0 0.00 0.00 0.00 55 1010.0
20260905172808 80 149 0.0 0.0 0.00 0.00 0.00 52 1010.1
20260905172306 82 163 0.0 0.0 0.00 0.00 0.00 50 1009.8
20260905171802 80 228 0.0 0.0 0.00 0.00 0.00 53 1010.5
20260905171259 79 140 0.0 0.0 0.00 0.00 0.00 55 1010.1
20260905170755 80 203 0.0 0.0 0.00 0.00 0.00 52 1009.9
20260905170250 79 234 0.0 0.0 0.00 0.00 0.00 54 1010.1
20260905165750 80 240 0.0 0.0 0.00 0.00 0.00 53 1010.1
20260905165246 80 125 0.0 0.0 0.00 0.00 0.00 53 1010.3
20260905164746 80 170 0.0 0.0 0.00 0.00 0.00 55 1010.1
20260905164241 80 219 0.0 0.0 0.00 0.00 0.00 52 1010.2
20260905163736 79 229 0.0 0.0 0.00 0.00 0.00 53 1010.2
20260905163233 80 175 0.0 0.0 0.00 0.00 0.00 55 1010.1
20260905162728 80 215 0.0 0.0 0.00 0.00 0.00 54 1010.1
20260905162227 79 108 0.0 0.0 0.00 0.00 0.00 55 1010.1
20260905161722 78 167 0.0 0.0 0.00 0.00 0.00 57 1010.1
20260905161220 77 200 0.0 0.0 0.00 0.00 0.00 60 1010.2
20260905160719 78 228 0.0 0.0 0.00 0.00 0.00 59 1010.1
20260905160214 77 203 0.0 0.0 0.00 0.00 0.00 60 1010.2
20260905155714 77 204 0.0 0.0 0.00 0.00 0.00 59 1010.0
20260905155213 77 168 0.0 0.0 0.00 0.00 0.00 59 1010.0
20260905154707 77 175 0.0 0.0 0.00 0.00 0.00 61 1010.2
20260905154203 78 165 0.0 0.0 0.00 0.00 0.00 59 1009.9
20260905153654 79 223 0.0 0.0 0.00 0.00 0.00 57 1010.2
20260905153148 81 147 0.0 0.0 0.00 0.00 0.00 55 1010.1
20260905152643 78 338 0.0 0.0 0.00 0.00 0.00 56 1009.9
20260905152138 76 194 0.0 0.0 0.00 0.00 0.00 59 1010.0
20260905151632 75 174 0.0 0.0 0.00 0.00 0.00 62 1010.1
20260905151123 75 227 0.0 0.0 0.00 0.00 0.00 62 1010.3
20260905150618 75 196 0.0 0.0 0.00 0.00 0.00 62 1009.9
20260905150115 75 214 0.0 0.0 0.00 0.00 0.00 61 1010.0
20260905145609 75 213 0.0 0.0 0.00 0.00 0.00 61 1009.9
20260905145108 76 216 0.0 0.0 0.00 0.00 0.00 63 1009.9
20260905144603 76 191 0.0 0.0 0.00 0.00 0.00 63 1010.2
20260905144102 77 265 0.0 0.0 0.00 0.00 0.00 61 1010.1
20260905143601 78 177 0.0 0.0 0.00 0.00 0.00 60 1010.1
20260905143057 77 200 0.0 0.0 0.00 0.00 0.00 61 1009.9
20260905142555 77 190 0.0 0.0 0.00 0.00 0.00 61 1010.0
20260905142050 77 141 0.0 0.0 0.00 0.00 0.00 61 1009.8
20260905141545 78 153 0.0 0.0 0.00 0.00 0.00 62 1010.0
20260905141041 77 180 0.0 0.0 0.00 0.00 0.00 62 1009.9
20260905140536 77 169 0.0 0.0 0.00 0.00 0.00 61 1009.8
20260905140035 78 138 0.0 0.0 0.00 0.00 0.00 60 1009.8
20260905135530 80 217 0.0 0.0 0.00 0.00 0.00 60 1009.8
20260905135025 78 239 0.0 0.0 0.00 0.00 0.00 60 1009.9
20260905134520 77 189 0.0 0.0 0.00 0.00 0.00 62 1009.8
20260905134019 77 168 0.0 0.0 0.00 0.00 0.00 61 1009.9
20260905133514 76 221 0.0 0.0 0.00 0.00 0.00 62 1010.0
20260905133014 76 214 0.0 0.0 0.00 0.00 0.00 62 1010.0
20260905132514 77 241 0.0 0.0 0.00 0.00 0.00 62 1009.7
20260905132009 77 118 0.0 0.0 0.00 0.00 0.00 62 1010.0
20260905131504 76 206 0.0 0.0 0.00 0.00 0.00 62 1010.1
20260905130959 76 249 0.0 0.0 0.00 0.00 0.00 62 1009.9
20260905130459 76 169 0.0 0.0 0.00 0.00 0.00 63 1010.4
20260905125958 76 213 0.0 0.0 0.00 0.00 0.00 63 1010.2
20260905125453 76 178 0.0 0.0 0.00 0.00 0.00 63 1010.3
20260905124949 76 254 0.0 0.0 0.00 0.00 0.00 63 1010.4
20260905124445 75 176 0.0 0.0 0.00 0.00 0.00 65 1010.4
20260905123940 75 170 0.0 0.0 0.00 0.00 0.00 65 1010.1
20260905123436 75 166 0.0 0.0 0.00 0.00 0.00 65 1010.4
20260905122931 74 185 0.0 0.0 0.00 0.00 0.00 66 1010.5
20260905122431 74 213 0.0 0.0 0.00 0.00 0.00 66 1010.8
20260905121927 74 207 0.0 0.0 0.00 0.00 0.00 65 1010.5
20260905121422 74 188 0.0 0.0 0.00 0.00 0.00 65 1010.4
20260905120916 73 135 0.0 0.0 0.00 0.00 0.00 68 1010.4
20260905120415 74 143 0.0 0.0 0.00 0.00 0.00 67 1010.5
20260905115910 73 124 0.0 0.0 0.00 0.00 0.00 71 1010.5
20260905115409 72 188 0.0 0.0 0.00 0.00 0.00 69 1010.6
20260905114859 72 150 0.0 0.0 0.00 0.00 0.00 70 1010.5
20260905114359 72 162 0.0 0.0 0.00 0.00 0.00 70 1010.4
20260905113858 72 139 0.0 0.0 0.00 0.00 0.00 72 1010.2
20260905113353 71 166 0.0 0.0 0.00 0.00 0.00 69 1010.2
20260905112848 71 149 0.0 0.0 0.00 0.00 0.00 72 1010.2
20260905112343 71 139 0.0 0.0 0.00 0.00 0.00 72 1010.3
20260905111838 71 134 0.0 0.0 0.00 0.00 0.00 71 1010.1
20260905111333 71 138 0.0 0.0 0.00 0.00 0.00 70 1009.9
20260905110832 72 158 0.0 0.0 0.00 0.00 0.00 71 1009.9
20260905110326 71 184 0.0 0.0 0.00 0.00 0.00 70 1009.8
20260905105822 72 181 0.0 0.0 0.00 0.00 0.00 70 1009.9
20260905105321 71 141 0.0 0.0 0.00 0.00 0.00 73 1009.8
20260905104815 71 142 0.0 0.0 0.00 0.00 0.00 70 1009.6
20260905104312 71 150 0.0 0.0 0.00 0.00 0.00 70 1009.6
20260905103811 71 158 0.0 0.0 0.00 0.00 0.00 70 1009.6
20260905103307 71 139 0.0 0.0 0.00 0.00 0.00 71 1009.6
20260905102803 71 191 0.0 0.0 0.00 0.00 0.00 70 1009.2
20260905102259 71 154 0.0 0.0 0.00 0.00 0.00 72 1009.2
20260905101758 71 182 0.0 0.0 0.00 0.00 0.00 69 1009.3
20260905101257 71 193 0.0 0.0 0.00 0.00 0.00 69 1009.3
20260905100751 71 158 0.0 0.0 0.00 0.00 0.00 69 1009.3
20260905100248 71 204 0.0 0.0 0.00 0.00 0.00 69 1009.6
20260905095742 72 184 0.0 0.0 0.00 0.00 0.00 69 1009.4
20260905095241 72 209 0.0 0.0 0.00 0.00 0.00 69 1009.6
20260905094736 72 162 0.0 0.0 0.00 0.00 0.00 69 1009.5
20260905094232 72 152 0.0 0.0 0.00 0.00 0.00 68 1009.3
20260905093731 72 203 0.0 0.0 0.00 0.00 0.00 68 1009.4
20260905093227 72 176 0.0 0.0 0.00 0.00 0.00 68 1009.3
20260905092722 73 190 0.0 0.0 0.00 0.00 0.00 68 1009.3
20260905092217 73 203 0.0 0.0 0.00 0.00 0.00 68 1009.3
20260905091716 73 185 0.0 0.0 0.00 0.00 0.00 67 1009.2
20260905091212 73 172 0.0 0.0 0.00 0.00 0.00 67 1009.1
20260905090711 73 154 0.0 0.0 0.00 0.00 0.00 69 1009.0
20260905090207 73 157 0.0 0.0 0.00 0.00 0.00 67 1009.3
20260905085706 73 199 0.0 0.0 0.00 0.00 0.00 66 1009.2
20260905085201 73 163 0.0 0.0 0.00 0.00 0.00 67 1009.0
20260905084700 73 210 0.0 0.0 0.00 0.00 0.00 66 1009.2
20260905084149 73 156 0.0 0.0 0.00 0.00 0.00 68 1009.3
20260905083644 73 197 0.0 0.0 0.00 0.00 0.00 65 1009.2
20260905083141 73 138 0.0 0.0 0.00 0.00 0.00 67 1009.1
20260905082637 73 184 0.0 0.0 0.00 0.00 0.00 65 1009.2
20260905082131 73 207 0.0 0.0 0.00 0.00 0.00 65 1009.2
20260905081631 74 218 0.0 0.0 0.00 0.00 0.00 64 1009.4
20260905081126 73 143 0.0 0.0 0.00 0.00 0.00 64 1009.0
20260905080621 73 164 0.0 0.0 0.00 0.00 0.00 64 1009.2
20260905080120 74 215 0.0 0.0 0.00 0.00 0.00 64 1009.0
20260905075619 74 252 0.0 0.0 0.00 0.00 0.00 64 1009.1
20260905075114 74 232 0.0 0.0 0.00 0.00 0.00 64 1009.4
20260905074613 74 226 0.0 0.0 0.00 0.00 0.00 64 1009.3
20260905074109 74 225 0.0 0.0 0.00 0.00 0.00 63 1009.3
20260905073604 74 195 0.0 0.0 0.00 0.00 0.00 62 1009.1
20260905073100 74 197 0.0 0.0 0.00 0.00 0.00 62 1009.2
20260905072559 74 230 0.0 0.0 0.00 0.00 0.00 62 1009.3
20260905072055 74 203 0.0 0.0 0.00 0.00 0.00 62 1009.4
20260905071551 75 203 0.0 0.0 0.00 0.00 0.00 61 1009.1
20260905071046 75 170 0.0 0.0 0.00 0.00 0.00 63 1009.3
20260905070541 75 191 0.0 0.0 0.00 0.00 0.00 61 1009.2
20260905070037 75 194 0.0 0.0 0.00 0.00 0.00 62 1009.3
20260905065535 75 222 0.0 0.0 0.00 0.00 0.00 61 1009.4
20260905065030 75 207 0.0 0.0 0.00 0.00 0.00 62 1009.2
20260905064530 75 194 0.0 0.0 0.00 0.00 0.00 62 1009.4
20260905064026 75 210 0.0 0.0 0.00 0.00 0.00 62 1009.4
20260905063524 75 170 0.0 0.0 0.00 0.00 0.00 62 1009.3
20260905063021 75 194 0.0 0.0 0.00 0.00 0.00 62 1009.3
20260905062520 75 216 0.0 0.0 0.00 0.00 0.00 62 1009.6
20260905062015 75 212 0.0 0.0 0.00 0.00 0.00 62 1009.7
20260905061511 75 232 0.0 0.0 0.00 0.00 0.00 62 1009.5
20260905061009 75 228 0.0 0.0 0.00 0.00 0.00 63 1009.5
20260905060506 75 172 0.0 0.0 0.00 0.00 0.00 63 1009.5
20260905060001 75 151 0.0 0.0 0.00 0.00 0.00 65 1009.4
20260905055459 76 186 0.0 0.0 0.00 0.00 0.00 64 1009.7
20260905054954 76 212 0.0 0.0 0.00 0.00 0.00 62 1009.6
20260905054450 76 243 0.0 0.0 0.00 0.00 0.00 62 1009.8
20260905053945 76 211 0.0 0.0 0.00 0.00 0.00 61 1010.1
20260905053440 76 205 0.0 0.0 0.00 0.00 0.00 62 1009.8
20260905052936 76 230 0.0 0.0 0.00 0.00 0.00 62 1010.2
20260905052435 76 122 0.0 0.0 0.00 0.00 0.00 64 1009.9
20260905051935 76 203 0.0 0.0 0.00 0.00 0.00 63 1010.1
20260905051430 76 212 0.0 0.0 0.00 0.00 0.00 62 1010.1
20260905050928 77 201 0.0 0.0 0.00 0.00 0.00 63 1010.0
20260905050423 76 124 0.0 0.0 0.00 0.00 0.00 64 1010.3
20260905045918 76 184 0.0 0.0 0.00 0.00 0.00 64 1010.3
20260905045408 77 150 0.0 0.0 0.00 0.00 0.00 65 1010.0
20260905044903 77 222 0.0 0.0 0.00 0.00 0.00 63 1010.0
20260905044358 77 184 0.0 0.0 0.00 0.00 0.00 63 1010.4
20260905043857 77 222 0.0 0.0 0.00 0.00 0.00 63 1010.2
20260905043352 77 158 0.0 0.0 0.00 0.00 0.00 64 1010.1
20260905042847 77 178 0.0 0.0 0.00 0.00 0.00 64 1010.1
20260905042347 77 236 0.0 0.0 0.00 0.00 0.00 63 1010.2
20260905041841 77 198 0.0 0.0 0.00 0.00 0.00 63 1010.3
20260905041337 77 229 0.0 0.0 0.00 0.00 0.00 63 1010.5
20260905040832 77 179 0.0 0.0 0.00 0.00 0.00 63 1010.5
20260905040331 77 200 0.0 0.0 0.00 0.00 0.00 63 1010.2
20260905035830 77 176 0.0 0.0 0.00 0.00 0.00 63 1010.4
20260905035326 77 286 0.0 0.0 0.00 0.00 0.00 63 1010.2
20260905034823 77 203 0.0 0.0 0.00 0.00 0.00 63 1010.2
20260905034318 77 211 0.0 0.0 0.00 0.00 0.00 63 1010.3
20260905033816 78 222 0.0 0.0 0.00 0.00 0.00 63 1010.1
20260905033312 78 202 0.0 0.0 0.00 0.00 0.00 63 1010.0
20260905032811 78 199 0.0 0.0 0.00 0.00 0.00 63 1010.0
20260905032307 78 203 0.0 0.0 0.00 0.00 0.00 63 1010.2
20260905031802 78 182 0.0 0.0 0.00 0.00 0.00 63 1010.0
20260905031258 78 224 0.0 0.0 0.00 0.00 0.00 62 1010.0
20260905030753 78 187 0.0 0.0 0.00 0.00 0.00 63 1010.1
20260905030248 78 164 0.0 0.0 0.00 0.00 0.00 63 1010.1
20260905025742 78 144 0.0 0.0 0.00 0.00 0.00 63 1010.3
20260905025238 78 177 0.0 0.0 0.00 0.00 0.00 62 1010.0
20260905024733 78 165 0.0 0.0 0.00 0.00 0.00 64 1010.1
20260905024230 78 187 0.0 0.0 0.00 0.00 0.00 61 1010.3
20260905023729 78 116 0.0 0.0 0.00 0.00 0.00 62 1010.1
20260905023224 78 222 0.0 0.0 0.00 0.00 0.00 61 1010.1
20260905022723 79 206 0.0 0.0 0.00 0.00 0.00 60 1010.0
20260905022219 79 193 0.0 0.0 0.00 0.00 0.00 61 1010.4
20260905021713 79 153 0.0 0.0 0.00 0.00 0.00 62 1010.4
20260905021208 79 197 0.0 0.0 0.00 0.00 0.00 61 1010.3
20260905020703 79 207 0.0 0.0 0.00 0.00 0.00 60 1010.3
20260905020158 79 196 0.0 0.0 0.00 0.00 0.00 60 1010.4
20260905015656 79 225 0.0 0.0 0.00 0.00 0.00 60 1010.4
20260905015145 79 196 0.0 0.0 0.00 0.00 0.00 59 1010.3
20260905014639 79 170 0.0 0.0 0.00 0.00 0.00 61 1010.5
20260905014135 79 168 0.0 0.0 0.00 0.00 0.00 60 1010.2
20260905013631 79 221 0.0 0.0 0.00 0.00 0.00 60 1010.4
20260905013127 79 161 0.0 0.0 0.00 0.00 0.00 60 1010.4
20260905012627 80 171 0.0 0.0 0.00 0.00 0.00 60 1010.4
20260905012123 80 172 0.0 0.0 0.00 0.00 0.00 60 1010.3
20260905011619 80 154 0.0 0.0 0.00 0.00 0.00 61 1010.1
20260905011115 80 194 0.0 0.0 0.00 0.00 0.00 59 1010.4
20260905010614 80 190 0.0 0.0 0.00 0.00 0.00 59 1010.4
20260905010111 80 218 0.0 0.0 0.00 0.00 0.00 59 1010.2
20260905005606 80 141 0.0 0.0 0.00 0.00 0.00 60 1010.0
20260905005101 80 226 0.0 0.0 0.00 0.00 0.00 58 1010.2
20260905004556 80 216 0.0 0.0 0.00 0.00 0.00 57 1010.0
20260905004051 80 212 0.0 0.0 0.00 0.00 0.00 58 1010.2
20260905003547 80 219 0.0 0.0 0.00 0.00 0.00 58 1009.9
20260905003042 80 193 0.0 0.0 0.00 0.00 0.00 59 1009.9
20260905002538 80 167 0.0 0.0 0.00 0.00 0.00 62 1010.0
20260905002037 80 211 0.0 0.0 0.00 0.00 0.00 58 1010.1
20260905001527 81 185 0.0 0.0 0.00 0.00 0.00 58 1010.0
20260905001027 81 173 0.0 0.0 0.00 0.00 0.00 58 1010.0
20260905000522 81 171 0.0 0.0 0.00 0.00 0.00 58 1010.1
20260905000018 81 192 0.0 0.0 0.00 0.00 0.00 57 1010.2
20260904235512 81 160 0.0 0.0 0.00 0.00 0.00 59 1010.0
20260904235006 81 224 0.0 0.0 0.00 0.00 0.00 58 1009.7
20260904234507 81 179 0.0 0.0 0.00 0.00 0.00 58 1009.8
20260904234003 81 186 0.0 0.0 0.00 0.00 0.00 59 1009.9
20260904233458 81 161 0.0 0.0 0.00 0.00 0.00 60 1010.1
20260904232954 82 183 0.0 0.0 0.00 0.00 0.00 58 1010.2
20260904232449 82 154 0.0 0.0 0.00 0.00 0.00 59 1009.8
20260904231941 82 178 0.0 0.0 0.00 0.00 0.00 58 1010.0
20260904231436 82 165 0.0 0.0 0.00 0.00 0.00 59 1010.1
20260904230931 82 200 0.0 0.0 0.00 0.00 0.00 57 1009.8
20260904230429 83 171 0.0 0.0 0.00 0.00 0.00 57 1009.8
20260904225924 83 175 0.0 0.0 0.00 0.00 0.00 57 1009.8
20260904225422 83 163 0.0 0.0 0.00 0.00 0.00 57 1010.0
20260904224917 83 152 0.0 0.0 0.00 0.00 0.00 56 1009.9
20260904224413 85 165 0.0 0.0 0.00 0.00 0.00 55 1009.9
20260904223912 85 208 0.0 0.0 0.00 0.00 0.00 53 1009.7
20260904223411 85 224 0.0 0.0 0.00 0.00 0.00 52 1009.9
20260904222908 84 206 0.0 0.0 0.00 0.00 0.00 53 1009.9
20260904222403 85 213 0.0 0.0 0.00 0.00 0.00 53 1010.0
20260904221903 85 207 0.0 0.0 0.00 0.00 0.00 52 1010.0
20260904221357 86 177 0.0 0.0 0.00 0.00 0.00 52 1009.9
20260904220853 85 176 0.0 0.0 0.00 0.00 0.00 52 1010.0
20260904220352 85 174 0.0 0.0 0.00 0.00 0.00 51 1009.9
20260904215848 86 194 0.0 0.0 0.00 0.00 0.00 51 1010.0
20260904215342 86 184 0.0 0.0 0.00 0.00 0.00 51 1009.6
20260904214838 86 213 0.0 0.0 0.00 0.00 0.00 51 1009.8
20260904214334 87 179 0.0 0.0 0.00 0.00 0.00 49 1009.8
20260904213832 87 171 0.0 0.0 0.00 0.00 0.00 50 1009.6
20260904213327 87 152 0.0 0.0 0.00 0.00 0.00 50 1009.6
20260904212824 86 186 0.0 0.0 0.00 0.00 0.00 51 1009.4
20260904212323 86 162 0.0 0.0 0.00 0.00 0.00 51 1009.5
20260904211819 86 111 0.0 0.0 0.00 0.00 0.00 51 1009.4
20260904211314 86 226 0.0 0.0 0.00 0.00 0.00 51 1009.5
20260904210808 87 155 0.0 0.0 0.00 0.00 0.00 50 1009.4
20260904210302 89 199 0.0 0.0 0.00 0.00 0.00 49 1009.9
20260904205759 87 124 0.0 0.0 0.00 0.00 0.00 50 1009.8
20260904205254 87 176 0.0 0.0 0.00 0.00 0.00 51 1010.0
20260904204751 87 187 0.0 0.0 0.00 0.00 0.00 50 1009.8
20260904204247 87 217 0.0 0.0 0.00 0.00 0.00 51 1009.7
20260904203743 87 163 0.0 0.0 0.00 0.00 0.00 52 1010.1
20260904203239 87 182 0.0 0.0 0.00 0.00 0.00 50 1009.9
20260904202734 87 194 0.0 0.9 0.00 0.00 0.00 49 1009.7
20260904202230 87 203 0.0 0.0 0.00 0.00 0.00 49 1009.9
20260904201725 87 197 0.0 0.0 0.00 0.00 0.00 50 1009.8
20260904201220 87 185 0.0 0.0 0.00 0.00 0.00 51 1010.0
20260904200715 87 135 0.0 0.0 0.00 0.00 0.00 51 1010.0
20260904200209 86 201 0.0 0.0 0.00 0.00 0.00 51 1010.0
20260904195708 88 208 0.0 0.0 0.00 0.00 0.00 49 1010.3
20260904195201 87 181 0.0 0.0 0.00 0.00 0.00 49 1010.3
20260904194701 87 158 0.0 0.0 0.00 0.00 0.00 51 1010.3
20260904194155 86 192 0.0 0.0 0.00 0.00 0.00 52 1010.3
20260904193651 86 217 0.0 0.0 0.00 0.00 0.00 51 1010.3
20260904193148 86 220 0.0 0.0 0.00 0.00 0.00 51 1010.4
20260904192647 87 134 0.0 0.0 0.00 0.00 0.00 51 1010.4
20260904192143 87 186 0.0 0.0 0.00 0.00 0.00 50 1010.4
20260904191639 86 212 0.0 0.0 0.00 0.00 0.00 50 1010.3
20260904191136 86 234 0.0 0.0 0.00 0.00 0.00 50 1010.5
20260904190632 87 205 0.0 0.0 0.00 0.00 0.00 51 1010.5
20260904190127 86 167 0.0 0.0 0.00 0.00 0.00 51 1010.7
20260904185623 86 173 0.0 0.0 0.00 0.00 0.00 51 1010.5
20260904185118 85 208 0.0 0.0 0.00 0.00 0.00 51 1010.7
20260904184617 86 145 0.0 0.0 0.00 0.00 0.00 51 1011.0
20260904184112 87 142 0.0 0.0 0.00 0.00 0.00 51 1010.5
20260904183608 85 215 0.0 0.0 0.00 0.00 0.00 51 1010.6
20260904183103 86 194 0.0 0.0 0.00 0.00 0.00 51 1011.1
20260904182558 87 174 0.0 0.0 0.00 0.00 0.00 50 1010.7
20260904182052 86 155 0.0 0.0 0.00 0.00 0.00 52 1010.7
20260904181549 86 250 0.0 0.0 0.00 0.00 0.00 51 1010.8
20260904181048 87 141 0.0 0.0 0.00 0.00 0.00 51 1010.6
20260904180543 85 189 0.0 0.0 0.00 0.00 0.00 53 1010.5
20260904180038 86 204 0.0 0.0 0.00 0.00 0.00 53 1010.7
20260904175532 85 177 0.0 0.0 0.00 0.00 0.00 54 1010.8